Location: Poznan
(52.4067°N, 16.9236°E)
Time: 03:20:23
(UTC+02:00)

ISS - Visible Passes

Search period start: 23 September 2018 00:00
Search period end: 03 October 2018 00:00
Orbit: 403 x 408 km, 51.6° (Epoch: 23 September)

Date Brightness Start Highest point End Pass type
(mag) Time Alt. Az. Time Alt. Az. Time Alt. Az.
23 Sep -1.6 19:37:53 10° SSE 19:38:49 11° SE 19:39:38 10° ESE visible
23 Sep -1.4 21:11:32 10° SW 21:12:21 16° SW 21:12:21 16° SW visible
24 Sep -2.8 20:20:00 10° SSW 20:22:53 28° SSE 20:22:54 28° SSE visible
25 Sep -2.2 19:28:42 10° SSW 19:31:10 20° SE 19:33:18 12° E visible
25 Sep -2.5 21:03:59 10° WSW 21:06:00 33° SW 21:06:00 33° SW visible
26 Sep -3.4 20:12:14 10° SW 20:15:23 44° SSE 20:16:15 35° ESE visible
26 Sep -0.8 21:48:27 10° W 21:48:56 13° W 21:48:56 13° W visible
27 Sep -2.8 19:20:35 10° SW 19:23:34 32° SSE 19:26:26 11° E visible
27 Sep -3.1 20:56:32 10° WSW 20:59:06 49° WSW 20:59:06 49° WSW visible
28 Sep -3.8 20:04:39 10° WSW 20:07:55 64° SSE 20:09:12 33° E visible
28 Sep -1.0 21:41:04 10° W 21:41:52 16° W 21:41:52 16° W visible
29 Sep -3.4 19:12:49 10° WSW 19:16:02 50° SSE 19:19:15 10° E visible
29 Sep -3.4 20:49:07 10° W 20:51:54 60° WSW 20:51:54 60° WSW visible
30 Sep -3.9 19:57:10 10° W 20:00:28 78° S 20:01:54 31° E visible
30 Sep -1.1 21:33:38 10° W 21:34:34 17° W 21:34:34 17° W visible
01 Oct -3.7 19:05:13 10° WSW 19:08:31 69° SSE 19:11:48 10° E visible
01 Oct -3.5 20:41:39 10° W 20:44:32 61° WSW 20:44:32 61° WSW visible
02 Oct -3.9 19:49:39 10° W 19:52:59 79° S 19:54:30 29° E visible
02 Oct -1.1 21:26:10 10° W 21:27:09 17° W 21:27:09 17° W visible
